Showing default

INTELSAT 2-F4, 2969

Orbit data source: Space-Track

INTELSAT 2-F4, 2969 is a payload satellite owned by INTELSAT (US) in GEO that was launched on Thu, 28 Sep 1967 UTC via a THOR DELTA E1 launch vehicle from the Air Force Eastern Test Range (AFETR). Payload-class satellites include a variety of spacecraft equipped with specific instruments for various scientific and technological missions. These include communications satellites like Starlink; space stations such as the ISS; scientific satellites like the Hubble; Earth observation satellites from companies like Planet Labs, Umbra, and HawkEye 360; GPS; miniature CubeSats for education and research; and military/defense satellites.

Loading next visibility...
Identifier
2969, 1967-094A
Orbit
GEO
Country
Flag of USUS / ITSO
Related business
Manufacturer
Hughes
Mission
Non-operational spacecraft
Bus & Motor
HS-303, SVM-1 S/N 3
Mass
163 kg wet, ~65 kg dry
Launch date (UTC)
1967-09-28 (59 years ago)
Launch vehicle
THOR DELTA E1
Launch site
Air Force Eastern Test Range (AFETR)
Object type
Payload
Rocket body
Debris
Shape & HBR
CYL, 1.1 m
Radar Cross Section
Large (>1 m²)

Expand to show TLE details & history
Last TLE update: 13 hours ago

TLE from 13 hours ago
0 INTELSAT 2-F4
1 02969U 67094A   26254.35030834 -.00000298  00000-0  00000-0 0  9997
2 02969   4.2888  73.2270 0012559 144.6750 206.9372  1.00333624116175
Epoch: 2026-09-11T08:24Z
TLE epoch observation values (Epoch: 2026-09-11T08:24:26.640Z)
Latitude
-0.65707°
Longitude
-51.69379°
Altitude
35,815.887 km
Speed
3.072 km/s
True Right ascension
04h 19m 10s
True Declination
0° 39' 23"
Sunlit
Object was in daylight at epoch
Visualization orbit readout
Latitude
Unknown
Longitude
Unknown
Altitude
Unknown
Speed
Unknown
Apparent Right ascension
Unknown
Apparent Declination
Unknown
Sunlit
N/A
Visualization observer readout
Local Sidereal Time
13:32:14
Azimuth
Unknown
Elevation
Unknown
Doppler factor
Unknown
Orbital elements
Apogee altitude
35,823.264 km
Perigee altitude
35,717.396 km
Semi-major axis
42,148.467 km
Eccentricity
0.00126
Inclination
4.2888°
RAAN
73.227°
Arg. of periapsis
144.675°
True anomaly
206.8721°
Mean anomaly
206.9372°
Eccentric anomaly
206.90464°
Mean motion
0.25082 °/min
Orbital period
1,435.26 mins
BSTAR
0
Loading maneuver chart data...
Computing Atmospheric mass density...
Loading historical data...
Loading historical data...
Loading historical data...
Loading historical data...
Loading historical data...
Loading historical data...
Loading historical data...
Other satellites on launch #94 in the year 1967 (1967-09-28 UTC)

Documentation

Showing up to 5 results
|